Time,TemperatureF,DewpointF,PressureIn,WindDirection,WindDirectionDegrees,WindSpeedMPH,WindSpeedGustMPH,Humidity,HourlyPrecipIn,Conditions,Clouds,dailyrainin,SoftwareType,DateUTC
2013-07-26 00:04:00,90.0,0.0,29.98,WNW,301,7.0,8.0,24,-99.99,,,-99.99,,2013-07-26 07:04:00,
2013-07-26 00:12:00,90.0,0.0,29.98,NW,304,8.0,10.0,24,-99.99,,,-99.99,,2013-07-26 07:12:00,
2013-07-26 00:20:00,89.0,0.0,29.98,WNW,300,7.0,12.0,22,-99.99,,,-99.99,,2013-07-26 07:20:00,
2013-07-26 00:28:00,89.0,0.0,29.98,WNW,297,6.0,16.0,22,-99.99,,,-99.99,,2013-07-26 07:28:00,
2013-07-26 00:36:00,88.0,0.0,29.98,WNW,299,7.0,18.0,23,-99.99,,,-99.99,,2013-07-26 07:36:00,
2013-07-26 00:44:00,89.0,0.0,29.98,WNW,300,17.0,21.0,23,-99.99,,,-99.99,,2013-07-26 07:44:00,
2013-07-26 00:52:00,89.0,0.0,29.99,WNW,295,10.0,20.0,24,-99.99,,,-99.99,,2013-07-26 07:52:00,
2013-07-26 01:00:00,88.0,0.0,29.99,WNW,297,12.0,18.0,29,-99.99,,,-99.99,,2013-07-26 08:00:00,
2013-07-26 01:08:00,87.0,0.0,29.99,WNW,295,13.0,18.0,26,-99.99,,,-99.99,,2013-07-26 08:08:00,
2013-07-26 01:16:00,87.0,0.0,29.99,WNW,295,14.0,20.0,28,-99.99,,,-99.99,,2013-07-26 08:16:00,
2013-07-26 01:24:00,87.0,0.0,29.99,WNW,301,15.0,22.0,27,-99.99,,,-99.99,,2013-07-26 08:24:00,
2013-07-26 01:32:00,86.0,0.0,29.99,WNW,295,9.0,22.0,27,-99.99,,,-99.99,,2013-07-26 08:32:00,
2013-07-26 01:40:00,86.0,0.0,29.99,WNW,302,9.0,16.0,27,-99.99,,,-99.99,,2013-07-26 08:40:00,
2013-07-26 01:48:00,87.0,0.0,29.99,WNW,300,13.0,20.0,27,-99.99,,,-99.99,,2013-07-26 08:48:00,
2013-07-26 01:56:00,87.0,0.0,29.99,WNW,301,13.0,21.0,25,-99.99,,,-99.99,,2013-07-26 08:56:00,
2013-07-26 02:04:00,87.0,0.0,29.99,WNW,298,9.0,23.0,27,-99.99,,,-99.99,,2013-07-26 09:04:00,
2013-07-26 02:12:00,88.0,0.0,29.99,WNW,284,18.0,21.0,25,-99.99,,,-99.99,,2013-07-26 09:12:00,
2013-07-26 02:20:00,88.0,0.0,29.99,NW,304,14.0,22.0,24,-99.99,,,-99.99,,2013-07-26 09:20:00,
2013-07-26 02:28:00,87.0,0.0,29.99,NW,308,10.0,20.0,23,-99.99,,,-99.99,,2013-07-26 09:28:00,
2013-07-26 02:36:00,87.0,0.0,29.99,WNW,299,7.0,15.0,28,-99.99,,,-99.99,,2013-07-26 09:36:00,
2013-07-26 02:44:00,86.0,0.0,29.99,WNW,299,14.0,16.0,25,-99.99,,,-99.99,,2013-07-26 09:44:00,
2013-07-26 02:52:00,85.0,0.0,29.98,WNW,298,14.0,21.0,26,-99.99,,,-99.99,,2013-07-26 09:52:00,
2013-07-26 03:00:00,85.0,0.0,29.99,WNW,286,14.0,22.0,27,-99.99,,,-99.99,,2013-07-26 10:00:00,
2013-07-26 03:08:00,85.0,0.0,29.99,WNW,296,15.0,22.0,30,-99.99,,,-99.99,,2013-07-26 10:08:00,
2013-07-26 03:16:00,85.0,0.0,29.99,NW,304,13.0,22.0,28,-99.99,,,-99.99,,2013-07-26 10:16:00,
2013-07-26 03:24:00,85.0,0.0,29.99,WNW,300,9.0,17.0,30,-99.99,,,-99.99,,2013-07-26 10:24:00,
2013-07-26 03:32:00,85.0,0.0,29.99,WNW,303,8.0,13.0,28,-99.99,,,-99.99,,2013-07-26 10:32:00,
2013-07-26 03:40:00,85.0,0.0,29.99,NW,307,3.0,12.0,26,-99.99,,,-99.99,,2013-07-26 10:40:00,
2013-07-26 03:48:00,84.0,0.0,29.99,NW,309,7.0,10.0,30,-99.99,,,-99.99,,2013-07-26 10:48:00,
2013-07-26 03:56:00,84.0,0.0,29.99,NW,307,3.0,10.0,28,-99.99,,,-99.99,,2013-07-26 10:56:00,
2013-07-26 04:04:00,84.0,0.0,29.99,NW,308,5.0,7.0,29,-99.99,,,-99.99,,2013-07-26 11:04:00,
2013-07-26 04:12:00,84.0,0.0,29.99,NW,307,8.0,8.0,28,-99.99,,,-99.99,,2013-07-26 11:12:00,
2013-07-26 04:20:00,84.0,0.0,29.99,NW,304,6.0,12.0,29,-99.99,,,-99.99,,2013-07-26 11:20:00,
2013-07-26 04:28:00,84.0,0.0,29.99,NW,315,5.0,9.0,28,-99.99,,,-99.99,,2013-07-26 11:28:00,
2013-07-26 04:36:00,84.0,0.0,29.99,NW,316,5.0,5.0,29,-99.99,,,-99.99,,2013-07-26 11:36:00,
2013-07-26 04:44:00,84.0,0.0,29.98,WNW,303,2.0,7.0,26,-99.99,,,-99.99,,2013-07-26 11:44:00,
2013-07-26 04:52:00,84.0,0.0,29.99,NW,310,3.0,7.0,29,-99.99,,,-99.99,,2013-07-26 11:52:00,
2013-07-26 05:04:00,83.0,0.0,29.99,NW,311,0.0,1.0,27,-99.99,,,-99.99,,2013-07-26 12:04:00,
2013-07-26 05:12:00,83.0,0.0,29.99,NW,309,2.0,2.0,28,-99.99,,,-99.99,,2013-07-26 12:12:00,
2013-07-26 05:20:00,82.0,0.0,29.99,WNW,300,5.0,5.0,28,-99.99,,,-99.99,,2013-07-26 12:20:00,
2013-07-26 05:28:00,82.0,0.0,30.00,NW,304,6.0,6.0,29,-99.99,,,-99.99,,2013-07-26 12:28:00,
2013-07-26 05:36:00,82.0,0.0,30.00,NW,306,5.0,7.0,30,-99.99,,,-99.99,,2013-07-26 12:36:00,
2013-07-26 05:44:00,82.0,0.0,30.00,WNW,298,5.0,6.0,30,-99.99,,,-99.99,,2013-07-26 12:44:00,
2013-07-26 05:52:00,82.0,0.0,30.00,NW,306,6.0,7.0,30,-99.99,,,-99.99,,2013-07-26 12:52:00,
2013-07-26 06:00:00,83.0,0.0,30.00,NW,304,3.0,7.0,31,-99.99,,,-99.99,,2013-07-26 13:00:00,
2013-07-26 06:08:00,82.0,0.0,30.01,NW,306,3.0,6.0,31,-99.99,,,-99.99,,2013-07-26 13:08:00,
2013-07-26 06:16:00,83.0,0.0,30.01,NW,306,3.0,6.0,30,-99.99,,,-99.99,,2013-07-26 13:16:00,
2013-07-26 06:24:00,82.0,0.0,30.01,WNW,302,7.0,7.0,30,-99.99,,,-99.99,,2013-07-26 13:24:00,
2013-07-26 06:32:00,83.0,0.0,30.01,NW,304,6.0,8.0,33,-99.99,,,-99.99,,2013-07-26 13:32:00,
2013-07-26 06:40:00,85.0,0.0,30.01,WNW,302,9.0,9.0,28,-99.99,,,-99.99,,2013-07-26 13:40:00,
2013-07-26 06:48:00,86.0,0.0,30.01,WNW,302,10.0,13.0,30,-99.99,,,-99.99,,2013-07-26 13:48:00,
2013-07-26 06:56:00,85.0,0.0,30.01,WNW,303,12.0,21.0,28,-99.99,,,-99.99,,2013-07-26 13:56:00,
2013-07-26 07:04:00,85.0,0.0,30.02,NW,307,15.0,20.0,29,-99.99,,,-99.99,,2013-07-26 14:04:00,
2013-07-26 07:12:00,86.0,0.0,30.02,WNW,302,10.0,16.0,26,-99.99,,,-99.99,,2013-07-26 14:12:00,
2013-07-26 07:20:00,86.0,0.0,30.02,NW,311,13.0,16.0,28,-99.99,,,-99.99,,2013-07-26 14:20:00,
2013-07-26 07:28:00,86.0,0.0,30.02,WNW,302,12.0,16.0,28,-99.99,,,-99.99,,2013-07-26 14:28:00,
2013-07-26 07:36:00,87.0,0.0,30.03,WNW,287,13.0,16.0,26,-99.99,,,-99.99,,2013-07-26 14:36:00,
2013-07-26 07:44:00,88.0,0.0,30.03,WNW,297,10.0,16.0,25,-99.99,,,-99.99,,2013-07-26 14:44:00,
2013-07-26 07:52:00,90.0,0.0,30.03,WNW,298,13.0,16.0,28,-99.99,,,-99.99,,2013-07-26 14:52:00,
2013-07-26 08:00:00,88.0,0.0,30.03,WNW,301,8.0,16.0,27,-99.99,,,-99.99,,2013-07-26 15:00:00,
2013-07-26 08:08:00,88.0,0.0,30.03,NW,306,9.0,15.0,28,-99.99,,,-99.99,,2013-07-26 15:08:00,
2013-07-26 08:16:00,89.0,0.0,30.04,NW,306,3.0,10.0,25,-99.99,,,-99.99,,2013-07-26 15:16:00,
2013-07-26 08:24:00,89.0,0.0,30.04,WNW,300,2.0,10.0,25,-99.99,,,-99.99,,2013-07-26 15:24:00,
2013-07-26 08:32:00,90.0,0.0,30.04,WNW,302,9.0,12.0,26,-99.99,,,-99.99,,2013-07-26 15:32:00,
2013-07-26 08:40:00,90.0,0.0,30.05,WNW,297,8.0,13.0,25,-99.99,,,-99.99,,2013-07-26 15:40:00,
2013-07-26 08:48:00,90.0,0.0,30.05,NW,306,10.0,15.0,25,-99.99,,,-99.99,,2013-07-26 15:48:00,
2013-07-26 08:56:00,90.0,0.0,30.05,WNW,300,12.0,15.0,26,-99.99,,,-99.99,,2013-07-26 15:56:00,
2013-07-26 09:04:00,91.0,0.0,30.05,WNW,299,13.0,15.0,25,-99.99,,,-99.99,,2013-07-26 16:04:00,
2013-07-26 09:12:00,91.0,0.0,30.05,WNW,299,12.0,16.0,24,-99.99,,,-99.99,,2013-07-26 16:12:00,
2013-07-26 09:20:00,92.0,0.0,30.05,WNW,297,13.0,15.0,24,-99.99,,,-99.99,,2013-07-26 16:20:00,
2013-07-26 09:28:00,92.0,0.0,30.05,WNW,302,6.0,14.0,25,-99.99,,,-99.99,,2013-07-26 16:28:00,
2013-07-26 09:36:00,92.0,0.0,30.05,WNW,302,12.0,14.0,27,-99.99,,,-99.99,,2013-07-26 16:36:00,
2013-07-26 09:44:00,92.0,0.0,30.05,WNW,302,9.0,15.0,23,-99.99,,,-99.99,,2013-07-26 16:44:00,
2013-07-26 09:52:00,92.0,0.0,30.05,WNW,292,12.0,15.0,24,-99.99,,,-99.99,,2013-07-26 16:52:00,
2013-07-26 09:57:00,92.0,0.0,30.05,NW,308,8.0,14.0,26,-99.99,,,-99.99,,2013-07-26 16:57:00,
2013-07-26 10:04:00,92.0,0.0,30.05,WNW,294,8.0,15.0,24,-99.99,,,-99.99,,2013-07-26 17:04:00,
2013-07-26 10:16:00,92.0,0.0,30.06,WNW,297,13.0,18.0,26,-99.99,,,-99.99,,2013-07-26 17:16:00,
2013-07-26 10:24:00,92.0,0.0,30.05,WNW,293,14.0,18.0,27,-99.99,,,-99.99,,2013-07-26 17:24:00,
2013-07-26 10:32:00,93.0,0.0,30.05,WNW,295,16.0,20.0,23,-99.99,,,-99.99,,2013-07-26 17:32:00,
2013-07-26 10:40:00,94.0,0.0,30.05,WNW,302,18.0,21.0,24,-99.99,,,-99.99,,2013-07-26 17:40:00,
2013-07-26 10:48:00,95.0,0.0,30.05,WNW,293,10.0,21.0,25,-99.99,,,-99.99,,2013-07-26 17:48:00,
2013-07-26 10:56:00,94.0,0.0,30.05,NW,308,2.0,20.0,28,-99.99,,,-99.99,,2013-07-26 17:56:00,
2013-07-26 11:04:00,94.0,0.0,30.05,WNW,302,12.0,17.0,25,-99.99,,,-99.99,,2013-07-26 18:04:00,
2013-07-26 11:12:00,94.0,0.0,30.05,WNW,300,5.0,17.0,23,-99.99,,,-99.99,,2013-07-26 18:12:00,
2013-07-26 11:20:00,94.0,0.0,30.05,NW,306,10.0,14.0,25,-99.99,,,-99.99,,2013-07-26 18:20:00,
2013-07-26 11:28:00,94.0,0.0,30.05,NW,304,10.0,16.0,24,-99.99,,,-99.99,,2013-07-26 18:28:00,
2013-07-26 11:36:00,94.0,0.0,30.05,WNW,302,10.0,16.0,25,-99.99,,,-99.99,,2013-07-26 18:36:00,
2013-07-26 11:44:00,96.0,0.0,30.05,WNW,302,14.0,15.0,24,-99.99,,,-99.99,,2013-07-26 18:44:00,
2013-07-26 11:52:00,96.0,0.0,30.05,WNW,298,10.0,17.0,21,-99.99,,,-99.99,,2013-07-26 18:52:00,
2013-07-26 12:04:00,95.0,0.0,30.05,WNW,300,9.0,17.0,24,-99.99,,,-99.99,,2013-07-26 19:04:00,
2013-07-26 12:12:00,96.0,0.0,30.05,WNW,299,2.0,15.0,21,-99.99,,,-99.99,,2013-07-26 19:12:00,
2013-07-26 12:20:00,96.0,0.0,30.05,WNW,298,9.0,16.0,26,-99.99,,,-99.99,,2013-07-26 19:20:00,
2013-07-26 12:28:00,97.0,0.0,30.04,WNW,301,9.0,16.0,23,-99.99,,,-99.99,,2013-07-26 19:28:00,
2013-07-26 12:36:00,98.0,0.0,30.04,NW,306,7.0,16.0,23,-99.99,,,-99.99,,2013-07-26 19:36:00,
2013-07-26 12:44:00,100.0,0.0,30.04,WNW,288,5.0,15.0,22,-99.99,,,-99.99,,2013-07-26 19:44:00,
2013-07-26 12:52:00,100.0,0.0,30.03,WNW,298,13.0,20.0,21,-99.99,,,-99.99,,2013-07-26 19:52:00,
2013-07-26 13:00:00,98.0,0.0,30.03,WNW,299,14.0,20.0,21,-99.99,,,-99.99,,2013-07-26 20:00:00,
2013-07-26 13:08:00,98.0,0.0,30.03,WNW,299,15.0,22.0,23,-99.99,,,-99.99,,2013-07-26 20:08:00,
2013-07-26 13:16:00,98.0,0.0,30.03,NW,305,14.0,21.0,20,-99.99,,,-99.99,,2013-07-26 20:16:00,
2013-07-26 13:24:00,99.0,0.0,30.02,WNW,300,12.0,20.0,19,-99.99,,,-99.99,,2013-07-26 20:24:00,
2013-07-26 13:32:00,98.0,0.0,30.02,WNW,302,9.0,20.0,22,-99.99,,,-99.99,,2013-07-26 20:32:00,
2013-07-26 13:40:00,98.0,0.0,30.02,NW,306,8.0,21.0,21,-99.99,,,-99.99,,2013-07-26 20:40:00,
2013-07-26 13:48:00,97.0,0.0,30.02,WNW,298,12.0,21.0,23,-99.99,,,-99.99,,2013-07-26 20:48:00,
2013-07-26 13:56:00,98.0,0.0,30.02,WNW,300,12.0,20.0,25,-99.99,,,-99.99,,2013-07-26 20:56:00,
2013-07-26 14:04:00,97.0,0.0,30.02,WNW,298,14.0,18.0,23,-99.99,,,-99.99,,2013-07-26 21:04:00,
2013-07-26 14:12:00,97.0,0.0,30.02,NW,306,6.0,18.0,21,-99.99,,,-99.99,,2013-07-26 21:12:00,
2013-07-26 14:20:00,96.0,0.0,30.02,WNW,297,8.0,21.0,23,-99.99,,,-99.99,,2013-07-26 21:20:00,
2013-07-26 14:28:00,96.0,0.0,30.02,WNW,288,17.0,23.0,22,-99.99,,,-99.99,,2013-07-26 21:28:00,
2013-07-26 14:36:00,97.0,0.0,30.02,NW,307,13.0,31.0,23,-99.99,,,-99.99,,2013-07-26 21:36:00,
2013-07-26 14:44:00,96.0,0.0,30.02,WNW,299,15.0,31.0,21,-99.99,,,-99.99,,2013-07-26 21:44:00,
2013-07-26 14:52:00,95.0,0.0,30.02,WNW,301,9.0,22.0,26,-99.99,,,-99.99,,2013-07-26 21:52:00,
2013-07-26 15:04:00,95.0,0.0,30.02,WNW,303,14.0,22.0,22,-99.99,,,-99.99,,2013-07-26 22:04:00,
2013-07-26 15:12:00,96.0,0.0,30.02,WNW,294,16.0,23.0,25,-99.99,,,-99.99,,2013-07-26 22:12:00,
2013-07-26 15:20:00,96.0,0.0,30.02,WNW,298,13.0,23.0,21,-99.99,,,-99.99,,2013-07-26 22:20:00,
2013-07-26 15:28:00,96.0,0.0,30.02,WNW,284,8.0,21.0,23,-99.99,,,-99.99,,2013-07-26 22:28:00,
2013-07-26 15:32:00,96.0,0.0,30.02,WNW,299,13.0,21.0,21,-99.99,,,-99.99,,2013-07-26 22:32:00,
2013-07-26 15:40:00,96.0,0.0,30.02,WNW,297,17.0,22.0,22,-99.99,,,-99.99,,2013-07-26 22:40:00,
2013-07-26 15:48:00,95.0,0.0,30.02,NW,307,16.0,21.0,22,-99.99,,,-99.99,,2013-07-26 22:48:00,
2013-07-26 15:56:00,95.0,0.0,30.01,WNW,293,9.0,21.0,23,-99.99,,,-99.99,,2013-07-26 22:56:00,
2013-07-26 16:04:00,94.0,0.0,30.01,NW,305,13.0,23.0,27,-99.99,,,-99.99,,2013-07-26 23:04:00,
2013-07-26 16:12:00,94.0,0.0,30.02,NW,305,14.0,20.0,23,-99.99,,,-99.99,,2013-07-26 23:12:00,
2013-07-26 16:20:00,94.0,0.0,30.02,NW,305,6.0,20.0,27,-99.99,,,-99.99,,2013-07-26 23:20:00,
2013-07-26 16:28:00,94.0,0.0,30.02,WNW,300,12.0,18.0,25,-99.99,,,-99.99,,2013-07-26 23:28:00,
2013-07-26 16:36:00,94.0,0.0,30.02,WNW,300,14.0,18.0,24,-99.99,,,-99.99,,2013-07-26 23:36:00,
2013-07-26 16:44:00,94.0,0.0,30.02,NW,313,7.0,16.0,23,-99.99,,,-99.99,,2013-07-26 23:44:00,
2013-07-26 16:52:00,94.0,0.0,30.02,WNW,303,12.0,16.0,24,-99.99,,,-99.99,,2013-07-26 23:52:00,
2013-07-26 17:00:00,95.0,0.0,30.02,NW,304,8.0,15.0,24,-99.99,,,-99.99,,2013-07-27 00:00:00,
2013-07-26 17:08:00,95.0,0.0,30.02,NW,314,8.0,15.0,27,-99.99,,,-99.99,,2013-07-27 00:08:00,
2013-07-26 17:16:00,95.0,0.0,30.02,NW,317,10.0,12.0,23,-99.99,,,-99.99,,2013-07-27 00:16:00,
2013-07-26 17:24:00,95.0,0.0,30.02,NW,320,8.0,12.0,28,-99.99,,,-99.99,,2013-07-27 00:24:00,
2013-07-26 17:32:00,95.0,0.0,30.02,NW,321,6.0,10.0,25,-99.99,,,-99.99,,2013-07-27 00:32:00,
2013-07-26 17:40:00,95.0,0.0,30.01,NW,320,6.0,12.0,25,-99.99,,,-99.99,,2013-07-27 00:40:00,
2013-07-26 17:48:00,94.0,0.0,30.01,NW,319,5.0,8.0,25,-99.99,,,-99.99,,2013-07-27 00:48:00,
2013-07-26 18:00:00,94.0,0.0,30.01,NW,320,9.0,12.0,29,-99.99,,,-99.99,,2013-07-27 01:00:00,
2013-07-26 18:08:00,94.0,0.0,30.00,NW,319,6.0,13.0,24,-99.99,,,-99.99,,2013-07-27 01:08:00,
2013-07-26 18:16:00,95.0,0.0,30.00,NW,319,8.0,12.0,24,-99.99,,,-99.99,,2013-07-27 01:16:00,
2013-07-26 18:24:00,95.0,0.0,29.99,NW,317,9.0,17.0,25,-99.99,,,-99.99,,2013-07-27 01:24:00,
2013-07-26 18:32:00,94.0,0.0,29.99,NW,316,14.0,21.0,26,-99.99,,,-99.99,,2013-07-27 01:32:00,
2013-07-26 18:40:00,94.0,0.0,29.99,NW,316,15.0,21.0,24,-99.99,,,-99.99,,2013-07-27 01:40:00,
2013-07-26 18:48:00,93.0,0.0,29.99,NW,309,14.0,25.0,29,-99.99,,,-99.99,,2013-07-27 01:48:00,
2013-07-26 18:56:00,93.0,0.0,30.00,NW,319,7.0,25.0,28,-99.99,,,-99.99,,2013-07-27 01:56:00,
2013-07-26 19:04:00,92.0,0.0,29.99,NW,317,9.0,15.0,32,-99.99,,,-99.99,,2013-07-27 02:04:00,
2013-07-26 19:12:00,92.0,0.0,29.99,NW,320,10.0,15.0,26,-99.99,,,-99.99,,2013-07-27 02:12:00,
2013-07-26 19:20:00,92.0,0.0,30.00,NW,319,9.0,15.0,29,-99.99,,,-99.99,,2013-07-27 02:20:00,
2013-07-26 19:28:00,92.0,0.0,30.00,NW,319,12.0,14.0,28,-99.99,,,-99.99,,2013-07-27 02:28:00,
2013-07-26 19:36:00,91.0,0.0,30.00,NW,315,10.0,16.0,28,-99.99,,,-99.99,,2013-07-27 02:36:00,
2013-07-26 19:44:00,91.0,0.0,30.00,NW,315,16.0,20.0,31,-99.99,,,-99.99,,2013-07-27 02:44:00,
2013-07-26 19:52:00,90.0,0.0,29.99,NW,316,17.0,21.0,31,-99.99,,,-99.99,,2013-07-27 02:52:00,
2013-07-26 20:00:00,89.0,0.0,29.99,NW,315,14.0,21.0,32,-99.99,,,-99.99,,2013-07-27 03:00:00,
2013-07-26 20:08:00,89.0,0.0,29.99,NW,310,17.0,20.0,33,-99.99,,,-99.99,,2013-07-27 03:08:00,
2013-07-26 20:16:00,89.0,0.0,29.99,NW,311,12.0,20.0,33,-99.99,,,-99.99,,2013-07-27 03:16:00,
2013-07-26 20:24:00,89.0,0.0,30.00,NW,316,7.0,15.0,31,-99.99,,,-99.99,,2013-07-27 03:24:00,
2013-07-26 20:32:00,89.0,0.0,30.00,NW,314,12.0,17.0,31,-99.99,,,-99.99,,2013-07-27 03:32:00,
2013-07-26 20:40:00,89.0,0.0,30.00,NW,316,14.0,16.0,32,-99.99,,,-99.99,,2013-07-27 03:40:00,
2013-07-26 20:48:00,88.0,0.0,30.00,NW,313,9.0,15.0,33,-99.99,,,-99.99,,2013-07-27 03:48:00,
2013-07-26 20:56:00,88.0,0.0,30.00,NW,313,9.0,15.0,32,-99.99,,,-99.99,,2013-07-27 03:56:00,
2013-07-26 21:08:00,88.0,0.0,30.00,NW,318,12.0,15.0,33,-99.99,,,-99.99,,2013-07-27 04:08:00,
2013-07-26 21:09:00,88.0,0.0,30.00,NW,318,12.0,15.0,33,-99.99,,,-99.99,,2013-07-27 04:09:00,
2013-07-26 21:16:00,88.0,0.0,30.00,NW,315,6.0,15.0,35,-99.99,,,-99.99,,2013-07-27 04:16:00,
2013-07-26 21:24:00,88.0,0.0,30.00,NW,320,7.0,13.0,33,-99.99,,,-99.99,,2013-07-27 04:24:00,
2013-07-26 21:32:00,88.0,0.0,30.01,NW,319,9.0,13.0,34,-99.99,,,-99.99,,2013-07-27 04:32:00,
2013-07-26 21:36:00,87.0,0.0,30.01,NW,317,6.0,14.0,35,-99.99,,,-99.99,,2013-07-27 04:36:00,
2013-07-26 21:44:00,87.0,0.0,30.01,NW,317,7.0,14.0,33,-99.99,,,-99.99,,2013-07-27 04:44:00,
2013-07-26 21:52:00,87.0,0.0,30.01,NW,314,7.0,15.0,34,-99.99,,,-99.99,,2013-07-27 04:52:00,
2013-07-26 22:00:00,87.0,0.0,30.01,NW,315,8.0,10.0,37,-99.99,,,-99.99,,2013-07-27 05:00:00,
2013-07-26 22:08:00,87.0,0.0,30.01,NW,309,7.0,10.0,36,-99.99,,,-99.99,,2013-07-27 05:08:00,
2013-07-26 22:16:00,86.0,0.0,30.01,NW,309,7.0,10.0,37,-99.99,,,-99.99,,2013-07-27 05:16:00,
2013-07-26 22:24:00,86.0,0.0,30.01,WNW,286,9.0,10.0,36,-99.99,,,-99.99,,2013-07-27 05:24:00,
2013-07-26 22:32:00,87.0,0.0,30.01,NW,309,8.0,10.0,36,-99.99,,,-99.99,,2013-07-27 05:32:00,
2013-07-26 22:40:00,87.0,0.0,30.01,NW,310,6.0,10.0,35,-99.99,,,-99.99,,2013-07-27 05:40:00,
2013-07-26 22:48:00,86.0,0.0,30.01,WNW,302,5.0,8.0,35,-99.99,,,-99.99,,2013-07-27 05:48:00,
2013-07-26 22:56:00,86.0,0.0,30.01,NW,309,6.0,9.0,36,-99.99,,,-99.99,,2013-07-27 05:56:00,
2013-07-26 23:04:00,86.0,0.0,30.01,WNW,301,5.0,12.0,35,-99.99,,,-99.99,,2013-07-27 06:04:00,
2013-07-26 23:12:00,86.0,0.0,30.01,NW,308,7.0,10.0,35,-99.99,,,-99.99,,2013-07-27 06:12:00,
2013-07-26 23:20:00,86.0,0.0,30.01,NW,306,7.0,10.0,33,-99.99,,,-99.99,,2013-07-27 06:20:00,
2013-07-26 23:28:00,86.0,0.0,30.01,WNW,301,5.0,10.0,37,-99.99,,,-99.99,,2013-07-27 06:28:00,
2013-07-26 23:36:00,86.0,0.0,30.01,NW,308,3.0,7.0,36,-99.99,,,-99.99,,2013-07-27 06:36:00,
2013-07-26 23:44:00,86.0,0.0,30.01,WNW,297,5.0,7.0,35,-99.99,,,-99.99,,2013-07-27 06:44:00,
2013-07-26 23:52:00,86.0,0.0,30.01,WNW,299,6.0,7.0,35,-99.99,,,-99.99,,2013-07-27 06:52:00,